Theta_e
351 347 343 334 332 334 333 335 335 340 342 343 343 342 342 342 343 341 339 335 333 336 341 341 340 340 339 339 340 340 338 336 338 340 339 340 342 341 341 341 341 341 341 338 337 337 337 337 337 336 335 335 334 334 333 333 334 333 333 333 334 336 336 336 338 338 338 338 338 338 339 339 339 339 339 339 338 338 338 338 337 337 337 337 337
351 347 344 336 333 334 332 333 333 338 341 343 344 343 343 343 343 341 338 335 336 339 341 341 341 341 339 340 339 339 336 337 340 342 341 341 341 340 341 341 340 341 339 337 337 337 337 337 337 336 335 335 334 332 329 330 333 333 332 332 333 334 335 335 336 337 337 337 337 337 337 338 338 337 337 338 338 339 339 337 335 336 335 335 336
349 347 345 337 333 333 331 331 332 337 341 343 344 344 344 343 343 341 339 336 338 340 342 341 341 340 339 339 339 338 337 339 341 341 341 340 340 340 341 341 340 340 339 337 337 338 337 337 337 336 336 336 334 331 326 325 329 331 331 331 332 333 333 334 335 335 336 335 335 335 335 335 336 336 336 335 336 336 337 336 334 334 332 332 334
349 347 345 337 332 333 330 330 331 336 340 342 343 344 344 343 343 340 338 337 340 341 341 341 340 340 340 339 338 338 338 340 341 341 340 340 340 340 340 340 340 339 338 338 338 338 336 336 337 337 336 336 335 335 330 324 324 326 329 331 331 332 332 333 333 335 335 335 335 335 335 336 336 337 337 335 335 334 333 334 334 333 330 330 332
348 346 344 339 336 333 330 330 330 334 339 341 343 343 343 342 341 339 338 338 340 341 341 341 340 340 339 338 338 338 338 340 341 340 340 340 340 340 340 340 340 339 338 339 338 337 336 337 337 337 337 337 336 337 335 328 323 322 326 330 331 331 332 332 332 333 334 335 335 335 335 336 336 337 337 336 336 334 333 333 334 334 332 331 330
348 346 343 342 342 337 330 329 330 334 337 340 342 342 342 342 341 340 339 340 341 341 340 339 340 340 339 339 340 340 339 339 339 339 339 340 340 339 339 339 339 338 338 338 337 336 337 337 336 337 337 337 337 337 337 333 327 322 323 327 330 331 331 332 332 331 332 333 333 332 332 334 336 337 337 336 336 335 334 333 333 334 334 333 331
347 346 344 343 344 338 330 328 330 335 336 339 341 341 341 341 341 341 341 341 341 340 338 339 341 340 339 341 341 339 337 337 339 339 339 340 341 340 338 339 339 338 339 339 337 337 338 337 336 336 337 337 337 337 337 336 331 325 322 322 326 330 331 331 331 331 332 333 333 332 331 332 334 335 336 336 336 335 333 332 332 333 333 332 331
347 346 345 344 343 336 330 328 330 334 335 338 340 340 341 341 341 341 342 342 341 339 339 340 340 340 341 342 339 337 336 338 341 342 342 342 342 340 337 338 339 339 340 339 338 338 339 339 338 338 338 337 337 337 336 336 334 328 324 321 321 325 329 330 330 330 331 332 332 332 332 332 332 334 335 335 335 334 333 331 330 331 333 332 332
346 346 345 345 341 332 330 331 331 333 334 338 338 338 340 341 341 341 342 341 340 339 339 338 337 339 340 340 337 337 338 338 341 342 343 342 342 340 337 339 340 340 340 340 339 340 340 340 340 339 339 338 337 337 336 336 335 331 326 323 320 321 325 328 329 331 332 332 332 332 331 332 332 333 333 333 333 333 333 332 331 331 331 331 331
346 347 344 345 340 330 330 332 331 332 334 336 336 337 339 340 341 341 341 340 338 336 336 336 336 338 339 339 338 339 339 338 340 341 342 342 341 339 337 340 341 340 340 340 340 340 340 340 340 339 338 338 336 335 335 335 334 332 328 324 322 320 324 329 331 332 332 332 332 332 331 332 332 332 331 331 331 331 331 331 331 331 330 329 330
346 346 345 345 340 329 329 331 330 332 333 335 335 336 337 338 338 339 338 336 335 335 336 338 339 339 340 341 340 339 338 337 339 340 340 341 340 338 338 340 341 339 339 339 340 339 339 339 339 338 337 335 334 334 334 333 332 332 328 325 322 322 327 331 331 331 331 331 331 332 331 332 332 331 330 330 330 329 328 329 329 329 330 329 330
347 347 346 345 340 332 330 331 329 330 331 332 333 334 335 336 337 337 335 335 335 337 339 340 341 341 342 342 341 339 338 337 337 337 337 338 338 336 338 340 340 339 339 339 340 339 339 340 339 336 335 333 334 334 333 333 331 330 327 324 322 324 329 331 332 333 333 333 334 333 333 333 332 330 330 329 329 328 328 328 329 329 329 329 329
347 347 345 344 341 335 331 332 331 332 334 332 331 332 333 335 336 336 335 336 337 338 340 340 341 342 342 342 342 340 338 337 336 336 335 335 335 335 338 339 340 339 339 339 339 339 339 338 336 334 333 333 334 333 333 332 330 328 326 323 321 326 331 331 332 332 333 334 334 334 333 332 331 329 330 329 329 328 328 329 329 328 328 328 328
347 347 345 343 342 338 334 334 334 335 337 335 334 334 333 335 337 336 336 338 338 338 338 340 341 341 341 341 340 339 338 336 335 336 335 334 333 333 336 338 339 339 339 338 338 339 338 336 333 333 333 334 334 333 332 331 329 328 326 323 323 328 331 332 332 332 333 334 333 333 333 332 330 329 330 330 330 330 329 328 328 328 327 327 327
347 346 345 343 342 341 338 336 336 337 337 335 335 335 334 337 338 337 337 337 337 337 338 339 340 339 339 337 335 336 336 335 335 335 334 334 332 331 334 338 338 339 339 338 338 337 336 334 332 333 333 334 334 333 332 331 330 328 327 325 325 330 332 332 332 332 334 334 334 333 333 332 330 329 329 329 329 329 328 327 328 328 327 327 327
347 346 345 344 342 342 340 338 337 337 336 336 336 335 334 335 335 335 335 336 337 337 338 338 338 338 335 332 332 333 334 334 335 335 334 335 334 330 332 336 338 338 338 337 337 336 335 333 333 333 333 334 335 333 332 332 330 328 328 327 327 330 332 333 333 333 334 334 334 332 331 330 329 329 329 329 328 328 327 327 327 328 328 328 328
347 346 345 344 342 341 341 340 338 337 337 337 337 335 333 333 333 334 334 335 337 337 336 336 336 335 332 332 333 332 333 335 336 335 335 336 335 332 330 332 336 338 337 337 336 335 334 333 332 333 333 334 334 334 333 332 332 330 328 328 328 329 332 333 333 333 333 334 335 333 332 330 330 330 329 328 328 328 328 327 327 327 328 328 327
346 345 345 344 343 341 342 340 338 338 338 338 338 335 333 333 333 333 334 336 337 337 336 335 336 335 334 334 335 333 333 335 335 335 336 337 335 335 332 329 333 336 336 336 334 333 333 332 332 332 333 334 335 334 333 332 332 331 329 329 328 329 333 334 333 332 332 333 334 333 332 330 329 329 329 328 327 327 327 327 327 327 327 327 327
345 345 344 344 343 342 342 340 340 340 339 338 337 335 334 333 333 334 335 335 336 336 336 336 336 336 336 336 335 333 334 335 334 334 335 336 335 335 334 330 331 334 334 333 332 331 331 331 331 331 332 333 334 334 334 333 333 332 331 329 329 332 335 335 334 333 334 334 333 332 330 329 329 329 329 328 328 328 327 327 327 327 327 327 326
345 345 344 343 343 343 342 341 341 340 340 341 338 335 334 333 333 334 334 334 335 336 336 336 336 336 336 335 333 333 334 334 333 333 333 334 336 335 334 332 331 332 333 332 331 330 330 330 330 330 331 333 334 334 334 333 333 333 332 330 331 335 336 335 335 333 333 334 333 331 329 329 329 329 329 329 328 327 327 327 327 326 326 326 325
345 345 344 343 343 343 342 341 342 341 341 342 341 339 335 333 333 334 334 334 335 335 335 334 334 334 334 334 334 337 337 334 334 333 333 335 336 336 335 333 332 332 332 332 331 330 330 329 329 329 330 332 334 334 334 334 333 333 332 331 333 336 336 335 335 334 334 334 333 330 329 330 329 329 329 328 327 327 327 327 327 327 326 326 325
345 344 344 343 343 343 342 342 342 342 342 342 344 341 337 336 336 336 335 335 334 334 335 335 336 336 335 336 338 339 339 338 336 333 334 336 336 336 336 335 334 334 333 332 331 330 330 329 329 329 329 331 333 334 334 334 334 333 332 333 336 336 336 336 335 334 334 333 332 330 330 330 329 329 328 328 328 327 327 326 326 326 325 325 325
344 344 343 343 343 343 343 343 343 343 343 343 344 342 339 339 339 337 336 336 335 336 338 339 339 338 337 339 340 340 340 339 337 334 335 337 337 336 336 336 336 335 334 333 331 330 330 329 329 328 328 330 334 335 335 335 334 333 333 335 337 337 337 336 335 334 333 332 331 330 331 330 329 329 328 328 327 327 327 326 325 325 325 325 325
344 344 343 343 343 344 343 343 344 342 342 343 342 342 341 342 340 337 336 338 337 338 340 340 340 339 339 341 341 340 340 339 336 332 332 335 337 336 336 336 336 335 335 334 332 330 330 329 328 328 329 331 334 335 335 336 336 336 336 337 337 336 337 336 335 334 332 333 332 330 330 328 328 328 327 327 327 327 327 326 326 326 325 325 324
344 344 344 344 344 343 343 343 344 342 342 343 342 342 342 342 339 336 337 339 339 339 338 338 341 342 341 341 340 340 340 339 336 333 332 334 335 335 336 335 334 334 334 333 332 331 330 330 329 329 331 332 332 334 334 335 336 338 338 337 336 336 336 335 335 334 333 333 331 330 329 328 328 328 327 327 327 326 326 326 325 324 324 324 324
343 344 344 344 345 344 343 343 343 343 342 343 342 342 342 341 338 337 340 340 339 341 339 339 341 342 341 340 340 340 340 339 337 336 335 334 334 334 334 334 333 333 333 332 332 332 332 332 331 332 332 332 332 333 334 334 335 336 337 336 336 335 335 335 335 335 334 333 331 331 331 330 331 331 329 327 326 326 325 325 324 323 323 323 324
342 343 342 342 344 343 343 343 342 342 343 343 342 342 341 340 339 339 341 340 339 340 339 340 341 341 341 341 340 340 340 339 338 337 336 335 335 334 334 334 333 333 333 333 333 333 333 333 333 332 332 332 332 333 333 334 334 335 336 336 335 335 334 334 335 335 335 333 331 331 332 332 332 331 327 324 324 325 324 324 324 324 322 322 324
341 341 341 341 343 343 342 343 341 340 342 343 340 340 341 341 339 339 341 340 340 339 339 340 340 340 340 341 341 340 339 339 337 336 336 335 335 334 333 334 333 333 333 333 333 333 333 334 334 333 333 333 332 332 332 333 333 334 336 336 335 335 335 335 336 336 336 333 332 331 331 331 332 331 325 321 322 323 323 324 325 323 320 317 320
339 340 340 340 342 342 342 342 341 340 341 341 340 341 341 340 338 339 341 339 339 339 339 339 339 339 339 340 340 340 339 338 336 336 335 334 334 334 334 334 334 334 334 334 334 333 334 334 334 334 334 333 333 333 332 332 333 334 335 336 336 336 336 336 336 337 336 334 332 331 331 331 331 330 326 323 323 324 324 325 324 319 316 313 314
338 339 339 339 341 340 340 340 340 340 340 339 341 341 339 338 337 337 339 338 339 340 339 339 339 339 339 339 340 340 340 338 336 335 335 335 335 335 334 334 334 334 335 335 335 335 335 335 335 335 334 334 334 334 334 333 333 334 335 336 336 336 337 337 336 336 335 334 332 330 331 331 330 329 328 326 326 325 325 325 323 319 317 318 317
337 338 337 338 340 339 339 339 339 339 339 339 340 340 339 339 338 337 338 339 340 340 339 340 340 340 339 339 339 340 340 339 336 335 335 334 335 335 335 334 335 335 335 335 336 337 336 336 336 336 335 335 334 334 335 334 333 334 335 336 336 336 337 337 336 335 335 333 331 330 331 331 329 328 329 328 328 326 325 325 323 321 321 323 323
336 337 337 338 339 339 339 339 339 338 339 339 339 340 340 340 338 337 338 339 340 340 340 340 340 340 339 339 339 339 340 339 337 336 335 335 335 335 336 336 336 336 336 335 335 336 336 335 334 334 335 335 334 335 335 335 335 335 334 335 335 335 336 336 336 335 335 333 330 331 331 330 329 328 329 329 329 328 327 327 326 324 323 324 325
335 335 338 339 339 339 338 339 339 338 339 339 339 340 339 338 337 336 337 338 339 340 340 340 340 340 339 339 339 339 340 338 337 336 336 336 336 336 337 337 336 336 335 335 335 334 335 334 333 333 334 334 335 334 335 335 335 335 335 335 335 335 336 336 335 335 335 333 331 331 331 331 330 329 329 329 329 328 327 328 328 327 326 326 326
335 335 339 340 339 339 338 340 340 338 339 339 339 338 338 337 336 335 335 337 338 339 339 339 340 340 339 339 339 339 339 338 336 336 336 337 337 337 337 337 336 335 335 334 335 335 335 334 333 333 334 334 335 334 334 334 334 334 334 334 334 335 335 335 335 335 335 333 331 331 331 332 332 331 329 328 327 327 327 328 328 328 328 327 328
336 338 340 340 341 340 340 340 340 339 339 339 338 337 337 337 335 333 333 336 338 339 339 339 339 339 339 338 339 339 338 337 336 336 336 337 337 337 337 337 336 335 335 335 335 335 334 334 334 334 334 334 335 334 334 334 334 334 334 334 334 334 335 335 335 335 334 333 331 331 332 333 332 331 330 327 326 325 326 327 327 327 327 328 328
337 339 340 341 341 341 341 341 340 340 339 339 337 337 337 337 335 332 331 333 337 338 338 338 338 338 338 338 338 338 338 337 336 336 337 338 337 337 337 336 335 335 335 335 334 334 334 334 334 334 333 334 334 333 333 333 333 333 333 334 334 334 335 334 334 334 334 333 332 333 333 331 330 330 329 328 327 325 325 326 326 326 327 327 327
338 339 340 340 341 341 341 341 340 339 339 338 337 336 337 336 334 330 328 332 336 337 338 338 337 337 338 338 338 338 338 338 337 338 338 338 337 337 337 336 335 335 335 334 335 334 334 334 334 333 333 333 333 333 333 333 333 333 333 333 334 333 334 334 334 334 333 333 333 333 332 330 329 329 329 330 329 326 325 325 326 326 326 327 327
338 339 340 340 341 340 340 340 340 339 338 338 337 336 336 336 334 329 328 334 336 336 337 337 336 337 337 337 338 338 338 338 338 338 338 338 337 337 336 335 335 335 334 335 335 334 334 333 333 332 332 333 333 334 333 333 332 332 333 333 333 333 333 334 334 333 332 332 332 332 332 332 330 330 330 330 329 327 327 326 325 326 326 326 327
338 338 339 339 340 340 339 339 339 338 338 338 337 336 336 336 334 330 331 335 336 336 336 336 336 337 337 337 338 338 337 338 338 338 338 338 337 337 336 335 335 335 335 335 335 334 333 333 332 331 331 332 333 333 333 333 333 333 333 333 333 333 333 333 333 333 331 331 332 331 332 332 332 332 331 331 330 329 329 328 328 328 327 325 326
338 339 339 339 340 340 339 338 338 338 337 336 336 336 336 336 334 331 333 335 335 336 336 336 337 337 337 337 338 338 338 338 337 337 337 337 337 337 336 335 336 336 335 335 335 334 334 333 332 331 331 331 332 333 333 333 333 333 333 332 333 333 332 332 332 332 332 331 331 331 331 331 331 331 331 330 331 330 330 330 330 330 329 326 325
338 338 339 339 339 339 339 338 338 337 337 336 336 336 335 336 334 333 335 335 335 336 336 336 337 337 337 337 337 337 337 337 336 335 335 335 336 336 336 336 336 336 335 335 335 334 334 333 332 332 331 331 332 333 333 333 332 332 332 332 333 332 332 332 332 332 332 331 331 331 331 331 331 331 330 330 330 331 331 330 330 331 330 329 327
338 338 339 339 339 339 339 338 337 337 336 336 336 336 335 336 334 333 334 335 335 336 336 337 337 337 337 337 337 337 336 336 335 334 334 335 336 336 336 336 336 335 335 335 334 335 334 333 332 331 331 332 333 333 333 332 332 332 332 332 332 331 331 331 331 332 331 331 331 331 331 331 331 331 330 330 330 330 330 330 330 330 330 330 329
338 338 338 339 339 339 338 338 337 336 336 336 336 336 335 334 333 333 334 334 336 336 336 336 337 337 336 336 336 336 335 334 334 334 334 336 336 336 336 336 335 335 335 334 334 334 334 334 332 331 331 332 333 333 333 332 331 331 332 331 331 331 330 329 330 331 331 330 330 330 330 330 331 330 330 330 330 330 330 330 330 329 329 329 328
337 338 338 339 338 339 338 338 337 336 336 336 335 335 335 334 332 333 334 335 335 335 335 336 336 336 336 335 335 335 334 333 334 333 333 335 336 336 335 335 335 334 334 334 334 335 334 334 333 331 331 332 333 332 332 332 332 331 331 331 331 331 331 330 329 329 330 330 330 330 330 330 330 330 330 330 329 329 329 329 329 328 328 328 328
337 338 338 338 338 338 338 337 336 335 336 336 336 336 335 334 333 334 335 335 335 336 336 336 336 336 335 335 334 334 334 333 333 333 333 335 336 336 336 335 335 335 334 333 334 334 334 333 333 332 332 332 332 332 332 332 332 331 331 331 331 331 331 331 330 330 329 329 329 329 329 329 330 330 330 330 329 329 328 328 328 327 327 327 327
338 338 338 338 338 338 337 336 335 335 335 335 336 335 334 335 335 335 335 335 334 335 335 335 335 335 335 334 333 333 334 334 333 333 333 333 334 335 335 335 335 335 334 333 333 333 333 333 333 333 332 332 332 332 332 331 332 331 331 332 332 331 330 331 330 329 329 329 328 328 329 329 329 329 329 329 329 328 327 327 327 327 327 327 327
338 338 338 338 337 337 337 336 335 335 335 335 335 335 335 335 334 334 335 334 333 333 334 335 334 335 334 333 333 334 333 333 333 333 333 332 332 333 333 333 334 334 334 333 333 333 333 332 332 332 332 332 331 331 331 331 332 331 330 331 332 331 330 331 330 329 329 329 328 328 328 328 328 327 327 327 327 327 326 326 326 326 326 326 326
337 337 338 337 336 337 336 335 334 334 334 335 335 335 335 335 334 334 334 333 333 334 335 335 335 334 333 333 333 333 333 332 333 332 332 332 332 332 332 332 333 333 333 333 334 333 333 332 332 332 332 331 331 331 331 331 331 331 330 331 332 332 331 331 330 330 330 329 327 326 326 326 326 325 325 325 325 325 325 325 325 325 325 325 326
337 337 337 336 336 336 334 333 333 332 333 334 335 334 335 335 333 332 331 332 333 334 335 335 334 333 333 332 332 331 332 332 332 331 331 331 331 332 332 332 332 331 331 333 333 333 333 333 333 333 332 332 332 332 331 331 331 331 331 331 331 331 331 331 331 330 330 329 328 326 325 325 325 324 324 324 324 324 324 324 324 324 324 324 326
336 336 336 336 336 335 332 332 333 332 332 333 334 334 334 333 331 330 331 334 335 335 335 334 333 333 332 332 331 330 331 331 331 331 331 330 331 331 330 330 331 331 330 331 333 333 334 333 333 333 332 332 333 332 330 331 331 331 330 330 330 330 330 331 331 330 330 329 329 328 327 327 325 324 324 324 324 324 324 324 324 324 324 324 325
336 336 336 335 334 333 332 332 333 332 331 331 332 333 333 331 330 330 334 336 336 335 334 333 332 332 331 331 330 329 329 329 330 331 331 331 330 330 330 329 330 330 329 330 331 332 334 334 333 333 332 332 333 332 331 332 331 331 331 330 329 330 329 330 331 329 329 329 329 328 328 327 325 324 323 323 323 323 324 324 324 324 324 324 324
Wind_Speed
23 23 26 31 29 28 26 25 25 27 28 28 29 30 30 29 29 29 28 28 26 27 27 27 30 29 26 24 23 22 21 23 23 21 19 18 18 18 18 18 18 18 18 19 19 19 18 18 18 18 18 17 16 16 15 15 15 14 15 18 20 16 14 16 17 17 17 17 17 17 17 17 17 18 19 19 19 18 18 18 17 17 17 17 17
25 24 26 30 30 28 27 26 26 27 27 28 29 29 30 29 29 29 29 27 26 27 27 27 28 26 24 24 22 21 22 23 22 20 18 18 18 18 18 18 18 18 19 20 20 19 18 19 19 19 18 17 17 17 16 15 14 14 18 20 17 14 15 17 18 18 17 17 18 18 17 16 16 16 16 16 17 17 16 17 17 17 17 16 16
25 24 25 29 30 28 27 27 26 27 27 29 29 29 29 29 29 29 28 27 26 27 27 26 25 24 23 23 22 22 23 23 22 21 19 18 18 19 18 18 19 19 20 20 20 19 19 19 19 19 18 17 17 18 17 16 16 16 19 19 14 15 15 16 19 19 18 17 17 17 16 16 16 15 15 14 15 16 15 15 17 17 16 16 16
25 25 25 29 30 28 27 27 27 27 28 28 29 29 29 29 29 29 28 27 27 27 26 24 24 23 22 21 22 22 23 23 22 21 20 19 19 18 18 18 19 19 20 20 20 19 19 20 19 18 17 16 16 17 17 17 16 17 19 17 14 16 16 15 19 20 20 18 17 16 15 16 16 15 14 14 14 14 15 15 16 16 15 16 15
25 24 25 28 28 28 28 27 27 28 28 28 29 29 30 30 29 28 28 27 27 26 25 24 23 22 21 22 22 22 22 22 22 21 20 19 19 18 18 18 19 20 20 20 20 20 19 19 18 17 16 15 15 15 15 17 17 16 17 15 15 17 16 16 18 20 18 15 15 15 14 15 16 15 14 14 14 14 14 14 14 15 15 15 15
25 24 25 25 24 27 28 28 28 28 28 29 29 30 30 30 29 28 28 27 26 25 24 23 23 21 21 22 21 20 21 21 21 21 20 19 19 18 18 19 19 20 20 19 19 19 19 18 17 16 15 14 15 14 14 15 16 16 16 15 16 17 16 16 18 20 17 13 11 12 13 13 13 14 14 13 14 14 13 13 13 14 14 15 15
25 23 24 23 22 26 28 28 29 29 29 29 29 29 30 29 29 28 27 26 25 24 23 22 21 21 21 20 19 19 20 21 21 20 19 19 20 19 19 19 19 20 19 18 19 19 18 17 16 15 14 14 13 13 13 13 14 15 16 15 16 17 16 17 18 18 16 12 10 11 11 12 12 13 13 13 12 13 12 11 12 13 13 14 14
23 23 23 23 22 27 29 28 29 29 29 29 29 29 29 29 29 28 27 25 24 24 23 22 21 21 21 20 20 21 21 22 20 19 19 20 21 20 18 18 19 18 18 17 18 18 16 15 14 13 12 12 11 11 12 12 12 14 15 15 16 16 16 17 17 15 13 10 10 10 10 11 12 12 12 12 12 12 11 10 11 12 13 14 14
22 22 22 22 23 29 30 29 29 28 29 29 29 29 29 29 28 27 26 24 24 23 22 21 22 22 21 21 22 21 21 21 20 19 19 20 20 19 18 18 18 18 17 17 17 16 15 14 13 12 11 11 11 10 11 11 11 12 13 14 15 15 16 16 14 13 11 10 11 11 11 11 11 12 10 10 11 11 10 11 12 12 13 13 14
23 22 21 21 24 29 30 30 29 28 28 28 28 28 28 28 27 27 26 24 23 22 21 20 21 21 21 22 22 21 20 21 21 20 20 20 19 19 18 18 18 18 17 16 16 15 14 13 13 12 11 10 10 10 10 10 10 11 11 12 13 15 17 17 15 11 9 11 12 12 13 13 12 12 10 9 10 9 9 11 11 12 13 13 14
23 22 21 21 24 29 30 30 30 29 28 27 28 28 27 27 26 26 25 24 23 22 22 21 20 21 22 23 23 21 20 21 21 21 19 19 20 19 18 18 18 17 16 15 15 15 14 13 12 12 11 10 9 10 10 10 10 11 11 11 12 14 15 15 13 10 11 13 13 14 14 14 14 13 12 11 11 10 11 12 12 13 14 13 13
23 21 21 22 24 28 29 29 29 29 28 28 28 27 27 27 26 25 25 25 24 23 22 21 20 21 21 21 22 21 21 20 20 19 18 17 19 20 19 18 18 16 15 16 15 15 14 13 12 11 10 10 9 10 10 11 11 12 12 12 13 14 14 14 11 8 11 12 12 13 14 15 15 14 13 13 13 13 14 13 13 13 13 13 13
23 21 22 22 22 26 28 26 27 27 26 28 28 28 27 27 26 26 26 26 24 22 20 19 20 21 20 19 19 20 20 20 19 18 17 16 16 19 19 18 18 16 16 15 15 14 13 12 11 11 10 9 9 10 12 12 12 12 13 13 14 14 15 14 10 9 11 11 12 13 14 15 14 15 14 13 14 14 14 13 12 13 13 13 13
22 22 23 23 22 25 27 26 26 26 25 26 26 26 27 27 27 26 26 25 23 22 20 19 20 21 19 18 18 17 18 18 17 16 16 15 15 19 19 18 17 15 15 15 15 13 12 12 11 10 9 9 10 12 13 12 12 13 13 14 15 16 16 12 9 10 11 11 12 13 14 14 13 14 14 13 14 14 14 13 13 13 13 14 14
22 23 23 23 22 23 25 26 26 26 26 26 26 26 27 27 27 27 26 25 23 21 20 19 20 19 18 17 17 16 16 17 17 15 15 15 16 19 19 17 16 15 15 14 13 13 12 12 11 9 9 9 10 12 13 12 12 12 13 13 14 14 14 9 8 10 10 11 12 12 14 14 14 14 14 13 13 13 13 14 13 13 13 14 14
22 24 23 23 24 22 22 23 25 27 27 27 26 26 27 27 27 27 26 24 22 21 20 19 19 18 17 17 16 16 16 16 17 15 14 15 16 17 17 16 15 14 14 14 13 13 13 12 11 9 9 9 10 11 12 12 12 12 12 12 12 13 14 10 7 8 9 10 11 12 13 13 13 13 13 12 12 13 13 13 13 13 14 13 13
22 23 23 24 24 23 22 21 24 26 27 27 27 27 27 27 26 26 25 23 21 21 20 19 18 18 16 16 16 16 15 16 16 15 14 16 16 15 15 15 15 14 14 14 13 13 13 12 11 9 9 9 9 11 12 11 11 11 11 11 12 13 15 12 8 8 9 9 10 11 12 12 12 12 12 12 13 13 13 13 13 13 13 13 13
22 22 23 24 24 23 22 22 24 24 24 25 26 27 27 26 25 25 23 21 21 21 20 19 18 18 17 16 15 15 15 16 15 14 14 15 14 13 14 15 16 15 14 14 13 13 12 11 11 10 10 10 9 10 11 11 10 10 10 10 12 13 15 13 9 9 9 9 10 11 12 13 12 11 11 12 13 12 12 13 13 13 13 12 12
20 21 23 24 23 23 23 23 23 23 23 23 24 25 25 24 24 23 22 20 20 20 20 19 18 18 17 15 15 15 15 15 15 14 14 13 13 13 13 15 16 15 14 14 13 13 12 11 10 10 10 10 10 10 10 10 10 9 9 9 11 14 15 11 9 9 9 9 10 11 12 12 11 11 11 12 12 12 12 12 12 12 12 12 12
19 21 22 22 22 22 23 23 23 23 23 23 23 23 23 23 23 23 21 19 19 19 20 18 18 17 16 16 16 16 16 15 14 14 14 13 12 13 13 13 15 15 15 14 14 13 12 11 10 10 10 10 11 10 9 9 9 9 8 9 10 13 12 8 8 9 9 9 10 11 12 12 11 11 11 12 12 12 11 11 11 10 11 11 12
18 20 20 21 21 21 22 22 22 23 23 23 21 21 22 22 22 21 19 18 18 18 19 18 18 17 16 17 16 15 15 15 14 14 14 13 13 14 13 13 14 15 15 15 14 13 12 11 11 10 9 9 11 10 9 8 9 9 9 9 10 9 7 7 8 8 9 9 10 12 13 12 11 11 11 11 11 11 11 11 11 10 11 11 11
18 19 19 20 20 21 21 21 22 22 22 22 20 20 21 21 19 18 17 17 17 17 18 17 16 16 17 16 15 14 13 14 14 14 14 12 13 15 14 13 13 14 14 14 14 13 12 11 11 10 9 9 9 10 9 8 8 9 9 9 8 6 6 7 7 7 9 9 10 13 12 10 10 11 10 10 11 9 10 11 11 11 11 11 11
17 18 18 20 20 20 20 20 21 22 21 20 19 20 20 19 19 18 17 16 17 17 15 15 15 16 17 14 13 13 12 12 13 14 14 13 13 14 14 14 13 12 12 12 12 12 11 11 11 10 10 9 8 8 8 7 8 9 10 8 5 5 6 6 7 7 8 9 10 12 10 9 10 10 9 9 9 9 9 10 10 11 11 11 11
14 15 16 18 18 19 20 19 20 22 22 19 19 19 18 17 18 18 18 17 17 16 15 17 16 14 14 12 12 13 12 12 13 15 14 13 13 13 13 12 12 11 10 9 9 11 11 10 11 11 10 8 7 7 7 7 9 10 10 7 5 6 6 6 6 7 8 9 10 12 10 10 11 9 9 9 9 9 8 9 10 10 10 9 10
12 12 14 16 17 18 20 20 20 20 20 18 18 18 17 16 16 17 17 17 16 16 17 18 16 14 13 13 12 12 12 12 13 13 13 12 12 12 11 10 9 9 8 8 9 10 10 10 10 10 9 8 7 7 7 7 8 9 9 8 7 7 6 6 6 7 9 10 10 12 11 11 10 9 10 9 8 7 7 9 8 8 9 9 10
11 11 13 15 16 16 17 19 18 18 18 17 18 18 17 15 15 16 16 15 15 15 16 16 15 14 14 13 13 12 11 11 11 11 12 12 11 10 9 9 9 8 8 8 9 9 9 9 9 9 8 8 7 7 7 6 7 7 7 7 7 7 6 6 6 7 9 10 11 12 11 10 9 9 10 8 8 7 7 8 7 7 9 10 9
7 7 11 13 14 14 14 16 16 18 17 15 18 18 15 14 14 15 15 15 15 15 15 15 15 14 13 13 13 12 11 10 10 11 11 11 10 10 9 9 9 8 8 8 8 8 8 8 8 8 7 7 7 7 7 6 6 6 7 7 7 7 6 6 6 7 9 11 13 13 11 9 7 9 10 8 8 8 8 8 8 7 8 9 9
8 4 5 10 12 12 13 13 14 16 15 15 19 18 14 13 14 14 14 15 15 15 14 15 17 16 14 14 13 12 11 10 10 10 11 10 10 9 9 9 8 8 8 8 8 8 8 7 7 7 6 6 6 6 6 6 6 6 6 7 7 7 6 6 6 7 9 10 13 13 12 8 6 9 10 9 9 9 9 9 8 7 7 8 8
16 12 9 9 10 12 13 13 14 15 15 18 19 16 15 14 15 14 13 16 15 14 14 14 17 16 14 14 12 11 11 10 10 10 10 10 10 9 9 8 8 8 8 8 8 8 7 7 7 6 6 6 6 6 6 6 6 6 6 7 7 6 6 6 6 7 8 10 12 12 11 8 7 8 10 10 10 10 10 9 7 7 8 9 9
17 17 15 12 11 13 15 17 18 16 16 20 18 17 18 16 16 13 13 15 12 12 13 12 14 14 13 13 12 11 10 10 10 10 11 11 10 9 8 7 7 7 7 7 7 7 6 6 6 6 6 6 6 6 5 6 7 7 7 7 7 6 6 6 6 7 7 9 10 9 10 9 9 8 9 10 10 10 10 8 7 7 8 9 9
17 17 16 14 16 17 19 19 19 17 17 20 19 17 17 15 15 13 12 12 10 11 11 10 11 12 13 12 11 11 10 9 10 10 10 11 10 9 8 8 7 7 7 6 5 5 5 5 5 5 5 5 5 5 5 5 6 6 6 6 6 6 6 5 6 6 6 9 10 8 9 10 10 9 8 9 9 9 9 9 9 9 8 8 8
21 17 17 19 21 21 22 21 20 19 19 21 21 17 15 15 15 13 12 11 11 12 11 10 11 11 12 12 11 11 10 10 10 10 10 10 10 10 9 8 7 7 7 7 5 4 4 5 5 4 4 5 5 5 5 5 4 5 6 6 6 5 5 5 6 7 7 9 11 10 9 10 11 10 8 8 7 8 8 8 8 8 8 7 7
22 22 24 26 26 24 24 23 21 21 22 23 21 18 18 17 14 13 13 13 12 11 11 11 11 12 13 12 12 12 11 10 10 10 10 10 11 10 10 9 8 7 7 7 6 5 5 5 5 4 4 5 5 5 5 5 4 4 4 5 5 4 4 5 6 7 7 8 10 10 9 9 10 10 8 7 7 7 7 7 6 6 6 6 6
18 27 32 30 28 27 24 23 23 25 25 22 20 19 19 18 14 13 13 14 13 11 10 11 11 12 12 12 12 12 11 10 10 11 10 10 10 9 9 8 8 8 7 7 6 5 5 6 6 5 5 4 5 5 5 5 5 5 4 4 4 4 4 5 5 6 7 8 9 9 9 8 9 9 8 8 7 7 7 7 6 6 5 5 4
14 23 28 25 25 25 21 21 24 26 24 20 20 21 18 16 14 14 14 12 12 11 11 11 11 11 11 12 12 11 10 10 10 11 10 9 9 8 8 8 8 8 7 6 6 5 6 7 6 6 6 5 5 5 5 4 4 5 4 4 4 4 4 5 5 6 6 8 8 8 8 8 9 9 9 9 8 8 7 7 6 6 5 5 4
14 17 21 21 21 22 20 21 24 24 22 19 20 20 16 15 14 14 14 13 12 11 11 11 10 10 10 11 11 11 10 10 10 10 9 8 8 8 7 7 8 7 6 6 6 5 6 7 6 6 7 7 7 6 5 5 5 5 5 5 5 5 5 5 6 6 6 7 7 7 6 8 11 10 9 9 8 8 7 7 6 6 6 5 5
15 15 17 19 20 22 20 20 22 21 20 18 20 20 17 16 14 14 14 14 12 10 10 10 9 10 10 10 11 10 10 10 10 9 9 8 8 7 7 7 7 7 6 6 6 6 6 7 6 6 6 7 7 7 6 6 6 6 6 6 6 5 5 5 6 6 7 7 6 6 5 7 11 10 9 8 8 8 8 7 7 7 7 7 6
14 14 16 17 18 20 19 17 18 20 20 19 20 21 19 16 15 15 14 12 10 9 9 9 9 10 10 10 11 10 10 10 10 9 8 8 8 7 7 7 7 7 7 6 5 5 6 7 7 6 5 6 7 7 7 7 7 7 6 7 6 5 5 5 5 6 8 9 7 6 5 6 8 7 7 6 6 7 8 7 6 6 6 6 7
14 15 16 17 16 19 20 18 18 20 21 21 21 20 18 17 17 16 14 11 10 10 9 10 10 10 10 11 11 10 10 11 10 10 9 8 8 7 7 7 7 7 7 7 6 6 7 7 7 7 6 5 6 7 7 8 8 7 7 7 6 6 5 6 6 5 6 10 8 6 6 5 5 5 5 4 4 5 6 6 6 6 5 5 5
15 16 16 18 17 18 20 20 20 20 21 21 20 19 17 17 18 16 14 13 12 11 10 10 10 11 11 11 11 10 10 11 10 9 9 8 8 8 8 8 7 7 7 7 7 7 8 8 8 8 7 6 6 7 7 8 9 8 8 7 7 7 6 6 5 3 4 10 10 7 6 6 5 5 4 4 3 4 5 4 4 5 5 4 3
16 17 18 19 19 18 18 19 20 21 21 20 20 20 18 17 19 17 15 15 14 12 12 11 11 11 11 11 11 10 10 10 9 9 9 8 8 8 8 8 7 7 7 7 7 7 8 8 8 8 8 7 7 7 8 9 9 9 8 8 8 8 7 6 5 4 3 7 8 8 7 6 6 6 4 4 3 4 4 3 3 4 4 3 3
16 18 19 20 20 19 18 19 21 22 22 20 19 20 18 18 20 19 17 17 15 14 14 12 11 11 11 11 10 10 10 10 9 9 9 8 8 7 8 8 7 7 7 6 7 7 7 8 8 8 7 7 7 7 9 9 8 8 8 8 7 7 8 8 6 5 4 5 6 6 6 5 6 6 5 4 4 3 3 3 3 3 4 4 2
16 17 18 20 21 20 20 19 19 20 19 20 20 19 19 19 21 20 18 16 15 14 14 12 11 11 11 11 10 10 10 10 10 10 10 9 9 8 8 8 7 7 7 7 8 8 8 8 8 8 7 7 7 8 8 7 6 9 8 6 5 5 7 9 7 6 6 6 5 5 5 5 5 5 4 4 3 3 3 3 3 2 3 3 2
15 16 18 19 20 20 20 17 17 19 19 19 19 19 20 20 20 20 16 14 12 12 12 11 11 11 11 11 11 11 11 10 10 10 10 9 10 9 8 8 8 7 7 8 8 9 9 8 8 8 8 8 7 8 7 5 4 5 5 4 5 5 4 7 8 7 7 6 6 5 5 5 5 5 5 4 3 3 2 3 2 1 1 2 2
15 15 17 18 18 19 18 17 21 23 19 19 18 19 20 19 19 18 15 12 11 12 12 11 11 11 12 12 12 12 11 10 10 10 9 9 10 10 9 9 9 8 8 8 8 8 8 8 8 8 8 7 7 8 6 4 3 2 2 0 3 3 2 8 9 6 6 6 6 6 6 6 5 5 4 4 4 3 2 2 1 1 1 1 2
15 15 17 17 17 18 20 22 24 22 19 20 21 21 21 20 21 20 18 16 15 15 14 14 13 12 12 12 12 12 11 11 10 9 9 9 9 10 9 9 9 9 8 7 7 8 8 8 8 8 7 7 6 7 7 6 5 2 2 2 1 3 2 9 7 4 5 5 5 5 6 7 6 5 4 4 3 3 2 2 1 2 2 3 4
13 14 16 17 18 19 21 26 25 20 20 21 21 22 21 20 22 22 21 20 19 17 15 14 13 13 12 13 12 12 11 10 10 9 9 8 8 9 9 9 9 9 8 8 8 8 8 8 8 8 7 7 7 7 8 8 6 4 1 1 1 2 2 6 4 5 6 5 7 8 8 8 7 6 5 4 3 2 2 3 3 4 4 5 5
11 13 16 17 19 19 21 24 23 20 20 21 22 23 22 22 22 21 20 19 18 16 14 13 13 13 13 13 12 11 11 10 9 9 8 8 7 7 8 8 8 9 9 8 8 8 7 7 8 8 7 7 7 6 7 8 7 6 4 2 2 2 2 3 3 3 6 4 7 9 8 7 7 6 5 4 4 4 4 4 5 6 6 6 6
11 12 15 18 19 20 20 21 21 20 19 19 23 24 21 20 20 19 18 17 16 15 14 13 13 14 13 12 11 10 9 9 8 8 8 7 7 7 7 7 7 7 8 8 7 8 8 7 8 8 8 7 7 6 7 8 7 7 7 5 3 3 2 2 3 3 6 6 6 7 7 7 7 6 5 5 5 6 6 5 6 7 7 7 7
14 12 13 17 18 17 18 18 18 19 17 17 23 25 20 18 17 18 17 15 15 14 14 14 14 14 13 12 11 10 9 9 8 7 7 7 6 6 6 6 6 6 6 7 8 8 8 8 7 7 8 8 7 6 6 7 6 7 7 6 6 6 4 3 4 4 6 7 5 7 8 7 7 7 6 6 7 7 6 7 8 8 8 8 8
15 13 12 14 14 11 13 15 16 19 18 16 19 20 17 16 17 17 15 15 15 15 15 15 14 14 13 13 12 11 10 9 8 7 7 6 6 5 5 5 5 6 6 7 8 8 8 8 8 7 7 8 7 7 7 6 7 7 7 7 7 7 5 4 5 4 4 5 5 6 7 7 8 8 7 7 6 7 7 8 8 8 8 8 8
Wind_Direction
150 150 151 158 157 156 157 155 154 152 155 157 159 160 161 159 158 158 157 157 155 148 142 144 145 145 144 141 142 142 142 141 137 135 137 135 132 129 128 127 127 127 127 126 123 123 122 119 116 111 105 100 98 99 102 102 104 111 114 109 97 95 99 91 93 97 96 97 95 93 90 88 85 85 85 85 84 80 79 78 73 71 72 73 74
152 148 149 157 156 156 156 155 154 152 155 155 157 159 160 159 158 158 158 157 152 146 143 146 146 145 143 142 143 143 142 141 137 135 137 134 133 132 131 130 130 129 127 126 126 126 123 120 117 112 107 102 97 94 97 100 103 113 121 114 99 100 106 96 96 101 99 99 97 94 91 88 84 82 82 80 81 79 77 82 80 73 70 72 74
148 145 147 154 156 156 155 155 153 152 153 153 157 158 159 158 158 158 157 155 148 146 145 147 148 145 143 143 144 144 143 141 139 140 140 137 137 136 135 135 134 132 128 128 128 127 125 121 117 115 111 105 96 89 89 96 101 111 123 118 106 110 114 104 100 104 103 99 97 97 95 91 86 83 81 79 78 77 74 77 80 75 72 72 73
147 142 144 153 156 156 156 155 152 152 151 152 155 155 157 156 157 157 155 153 147 147 147 147 149 146 145 144 143 142 142 143 143 143 142 140 139 139 139 138 136 134 132 131 129 128 126 121 120 119 115 108 98 91 86 90 98 112 126 125 119 119 119 113 103 103 101 98 98 98 97 92 87 85 82 81 78 74 71 72 74 71 68 69 71
143 140 142 150 153 157 157 154 152 151 151 151 152 153 154 154 156 155 154 152 149 149 149 149 149 147 144 141 138 139 142 144 145 144 144 142 141 142 141 140 137 135 135 133 131 129 126 123 123 122 118 112 104 98 91 91 96 106 121 127 129 125 123 121 110 106 103 102 104 100 97 93 87 84 82 82 78 74 72 72 72 68 62 60 65
140 138 141 146 151 156 156 153 152 150 150 150 151 153 153 154 155 154 154 151 150 151 149 147 146 146 142 139 139 141 143 146 146 144 144 143 143 143 141 140 138 137 137 135 132 130 127 126 126 122 119 117 111 103 94 93 97 101 110 122 132 131 130 129 119 109 100 97 102 100 96 94 88 82 81 80 79 79 77 76 75 74 68 61 61
139 138 142 147 149 155 156 153 152 151 150 149 151 153 154 154 154 153 153 151 151 150 147 146 147 147 143 141 143 144 144 143 143 143 145 146 143 141 140 139 139 139 138 135 133 132 130 128 126 124 121 120 118 108 99 95 98 103 105 115 128 136 137 136 128 109 95 91 94 99 95 96 93 83 80 80 80 76 72 75 79 80 75 69 66
139 140 144 147 150 156 156 153 152 151 150 150 151 152 154 155 154 153 152 153 153 150 149 152 152 148 145 146 144 143 141 138 140 144 148 146 142 140 140 140 141 139 137 137 136 134 131 127 126 125 123 122 121 116 110 103 100 104 107 111 120 134 140 141 132 104 92 96 95 97 94 96 94 89 84 80 78 69 58 61 70 77 79 77 74
142 142 145 146 151 157 155 155 154 151 149 150 152 152 155 155 155 154 155 155 156 153 154 156 153 148 148 149 144 141 140 139 141 144 144 141 139 140 141 141 141 138 139 140 136 134 131 128 127 125 125 125 124 123 119 114 108 105 107 110 114 122 131 134 119 91 90 98 95 93 92 95 95 93 85 77 81 83 78 71 69 74 80 82 80
144 145 146 145 150 155 155 156 155 153 151 151 152 153 155 156 156 156 157 156 156 154 151 151 149 148 150 151 146 142 143 145 145 146 146 143 141 142 142 142 142 142 144 142 137 135 133 130 128 128 130 128 125 122 122 121 117 111 109 111 114 115 117 112 95 83 91 93 91 88 89 91 90 91 85 77 80 92 97 84 78 77 78 78 80
145 145 145 144 150 154 155 157 157 156 155 155 153 153 153 154 155 154 154 154 151 147 145 146 149 153 154 153 147 143 144 147 149 150 150 147 143 142 143 145 146 148 147 142 139 137 134 133 134 137 134 126 120 119 121 122 118 115 113 114 118 116 108 93 84 89 93 91 91 90 89 87 86 89 87 82 77 80 83 75 77 80 81 82 79
146 144 143 144 151 154 156 157 157 157 156 156 154 154 153 151 152 151 151 149 147 145 146 151 155 155 153 151 146 143 145 148 150 150 150 148 147 147 148 149 149 152 149 142 140 139 139 141 144 141 130 121 117 120 123 121 118 115 113 115 118 116 101 86 86 96 95 94 91 89 88 85 86 88 84 84 80 78 80 78 79 81 82 84 80
144 142 142 143 151 156 157 158 156 154 152 152 151 152 153 152 151 150 149 147 147 148 150 152 153 150 145 145 144 143 144 146 146 146 148 149 150 153 155 153 152 152 148 144 144 144 144 147 147 137 125 118 119 124 124 120 118 114 111 111 116 113 98 89 94 97 94 92 88 88 88 86 89 89 85 84 84 83 84 81 79 78 78 82 81
143 141 141 143 152 157 159 159 156 152 149 149 148 149 152 151 150 150 149 149 151 152 152 150 149 147 142 142 141 140 141 142 143 144 145 145 149 157 162 159 155 152 147 147 148 147 145 147 146 134 123 117 123 129 125 120 116 112 108 109 114 109 96 89 94 95 91 89 88 89 89 88 89 90 90 85 84 85 85 81 78 79 80 84 83
146 143 142 146 153 159 161 159 156 152 149 149 147 148 151 150 149 149 150 152 153 153 153 149 148 148 142 141 140 140 142 143 146 145 143 144 146 157 167 162 155 151 150 149 147 149 151 150 145 132 122 115 120 130 128 120 114 109 106 107 110 106 97 90 92 94 92 90 89 90 90 94 96 94 93 91 89 87 86 83 81 81 81 84 83
150 146 146 149 153 157 160 159 156 153 150 149 148 149 150 149 148 149 151 154 155 155 154 151 150 148 144 144 142 142 144 148 151 148 147 147 143 151 166 167 157 151 152 152 151 155 156 152 143 132 122 114 116 127 130 121 114 109 105 104 103 105 103 98 94 94 94 93 91 93 94 97 100 97 94 93 92 89 89 87 85 83 82 84 84
153 152 151 151 154 156 157 160 158 153 151 149 149 150 149 149 149 150 153 155 156 156 155 153 152 150 150 150 146 145 148 152 153 149 149 149 145 144 155 169 166 155 154 155 155 156 155 151 142 133 123 116 114 123 131 126 118 110 105 101 97 102 103 96 91 94 94 92 92 95 97 101 101 97 96 94 93 93 92 91 89 86 84 85 84
157 158 156 154 155 157 156 159 157 152 152 151 150 150 149 148 149 151 154 156 156 157 156 154 154 155 156 154 151 149 150 153 152 149 148 146 147 145 145 159 166 162 159 157 157 156 155 152 144 138 129 120 114 119 131 132 125 116 110 103 98 96 93 89 89 94 93 89 91 94 101 110 108 101 98 95 94 94 94 93 90 87 85 85 85
162 161 160 157 156 157 156 157 155 153 153 151 151 152 151 149 150 152 154 155 155 156 157 155 156 159 158 156 154 150 150 152 151 152 153 148 149 153 148 151 161 166 165 161 161 159 157 155 148 143 136 127 119 116 128 135 134 126 114 108 101 86 78 82 90 92 91 88 90 96 106 113 109 101 99 98 97 95 94 94 92 92 91 88 88
164 163 164 162 158 157 156 157 156 156 153 149 152 153 154 153 154 155 154 155 154 155 156 157 159 159 158 156 152 147 147 147 148 154 158 156 154 155 154 153 159 166 168 167 165 163 160 155 151 149 142 134 127 121 124 135 142 135 122 115 99 78 72 84 89 87 89 89 92 102 109 109 104 99 99 101 99 96 95 95 94 95 92 89 89
166 167 167 164 161 158 157 158 158 156 152 149 149 152 156 156 155 155 155 155 155 156 157 160 160 159 157 153 148 144 144 143 143 152 157 160 161 155 155 156 157 162 167 170 171 168 161 154 150 150 147 140 133 127 125 133 145 142 134 117 93 80 86 93 88 89 90 90 95 102 106 106 105 103 100 100 98 97 99 96 91 90 89 88 90
169 170 169 168 164 160 160 159 157 155 152 147 147 152 155 155 154 154 155 155 156 157 158 159 156 157 155 148 144 142 143 143 140 146 150 156 162 156 155 157 153 157 164 170 175 171 163 157 152 153 156 148 133 129 128 133 148 149 141 119 99 102 107 100 95 96 93 91 98 102 105 107 106 103 98 98 99 99 101 98 93 92 91 89 89
172 172 171 171 165 162 161 158 156 154 150 149 150 152 154 154 154 155 155 156 157 156 156 156 156 156 152 149 148 144 143 142 140 145 151 151 155 156 157 158 154 156 161 165 172 173 171 166 161 158 158 153 140 141 143 144 153 155 149 134 129 132 117 111 105 100 97 96 103 109 111 108 101 102 101 99 98 95 96 97 94 93 93 94 95
173 173 172 172 167 164 160 156 157 154 152 153 153 151 153 156 154 156 155 156 158 158 162 159 158 157 153 153 151 147 143 142 143 148 153 152 154 160 161 160 158 159 157 158 167 171 173 171 167 159 157 162 162 167 167 162 163 163 165 163 156 140 127 123 112 105 104 102 110 114 114 112 107 104 101 99 101 98 97 97 94 96 99 97 97
173 177 176 172 170 167 159 156 158 157 155 155 156 155 154 156 155 156 154 156 161 164 170 164 157 156 154 154 152 149 146 143 143 144 149 153 156 162 164 162 164 164 157 160 168 166 164 165 167 165 165 174 175 182 183 175 171 172 176 171 158 147 140 128 118 114 108 109 118 116 108 105 106 99 90 95 106 102 99 100 99 107 106 95 94
177 185 182 172 167 167 159 156 160 159 158 158 158 154 154 156 157 157 153 159 168 169 171 164 154 152 152 153 152 152 150 146 145 144 147 152 156 160 162 162 164 165 161 165 165 161 162 166 172 172 173 179 180 188 190 184 181 181 179 170 160 154 148 132 125 118 113 118 120 117 108 98 100 97 79 81 105 106 101 102 97 98 98 94 96
185 201 186 170 161 163 161 159 165 163 157 159 157 152 153 157 155 156 157 163 173 175 170 160 152 151 152 152 151 153 153 150 148 147 147 150 154 155 155 155 155 155 154 155 153 156 166 167 169 170 172 177 183 186 188 188 188 186 177 171 164 157 151 135 127 118 117 124 121 118 117 106 99 95 78 74 102 111 108 106 101 95 94 98 100
182 209 169 160 155 154 159 161 165 163 157 154 152 154 157 157 155 156 160 167 177 179 171 160 155 154 152 152 151 155 157 155 151 149 148 149 150 149 147 146 144 144 144 145 147 154 160 158 158 160 162 165 173 179 182 184 188 187 175 170 165 158 151 136 129 121 117 125 124 122 126 123 103 96 89 87 102 109 106 106 108 100 91 95 102
170 170 148 153 158 152 157 163 165 165 165 158 151 158 162 159 161 158 163 173 179 179 172 163 156 153 153 154 155 158 161 159 156 152 149 148 148 147 144 142 141 140 142 145 148 153 153 152 152 151 152 154 160 167 171 174 180 183 174 169 164 158 149 139 134 126 123 131 130 129 137 133 106 101 100 96 100 106 106 108 109 95 86 88 96
149 156 149 155 171 171 170 172 176 173 169 166 159 163 166 163 164 164 169 176 178 176 171 164 156 154 157 160 163 164 163 160 157 154 151 150 149 148 145 143 144 147 147 148 150 152 155 154 153 151 151 152 152 153 160 165 171 175 173 169 164 161 154 150 144 139 141 142 138 139 142 126 99 100 107 103 102 104 107 110 106 93 90 91 91
148 155 152 165 182 184 179 175 178 177 174 176 170 165 166 164 163 165 171 174 175 171 169 168 162 161 161 163 168 169 167 162 158 156 155 154 153 152 150 151 154 158 157 155 154 152 154 151 146 148 147 148 146 146 152 156 163 166 170 169 165 167 161 161 156 158 160 147 150 155 142 125 109 108 108 104 106 105 105 104 97 93 95 97 92
154 160 163 176 186 186 180 172 172 179 183 183 175 165 163 165 165 164 166 171 173 170 172 172 168 168 166 166 170 172 172 166 159 158 159 159 160 159 158 161 164 167 166 163 159 149 149 143 140 144 144 144 142 143 145 148 152 153 164 164 163 168 161 166 165 171 172 147 153 159 145 136 124 118 111 100 103 107 107 103 95 92 96 101 98
164 172 182 182 184 185 179 169 167 180 188 186 177 166 165 171 173 166 165 171 172 172 176 175 171 171 170 170 172 174 176 170 163 161 163 165 166 165 164 167 169 168 168 165 159 156 160 149 148 156 153 148 140 142 144 143 139 133 145 148 153 158 151 166 169 177 176 145 151 158 150 148 132 123 118 105 103 108 114 117 112 107 101 102 98
195 178 182 180 180 183 178 169 168 180 188 185 177 172 172 176 177 169 169 174 173 174 178 177 175 173 172 174 173 176 177 172 168 166 168 169 168 169 168 168 171 170 169 167 160 166 172 159 159 164 158 155 147 147 147 145 143 134 130 128 138 144 147 164 169 183 171 139 150 155 146 150 145 139 130 115 109 110 122 132 130 127 123 121 112
204 174 175 177 178 177 176 173 173 180 186 181 175 178 179 174 174 169 170 177 176 178 180 178 178 174 172 175 177 178 178 175 174 172 172 171 169 173 172 168 169 170 170 172 167 170 175 164 163 163 159 160 147 141 141 134 134 131 121 115 124 136 150 162 169 182 159 135 145 146 142 155 160 153 137 124 114 113 126 135 133 132 137 141 131
182 176 177 179 179 176 176 177 177 179 182 178 172 176 175 169 174 170 173 186 183 180 183 181 180 178 174 177 180 179 178 179 178 176 175 174 176 175 173 171 169 169 173 173 170 174 172 162 161 167 165 159 146 140 138 131 123 117 112 112 121 137 154 164 174 176 148 138 143 141 147 158 160 156 140 131 124 120 124 127 126 125 121 114 110
174 181 183 182 181 179 175 175 177 177 177 174 170 174 173 169 174 174 182 195 189 182 186 185 182 182 179 177 180 180 180 183 181 180 178 179 183 178 175 175 171 175 177 171 175 175 163 154 155 167 171 159 148 144 139 132 124 117 115 116 120 135 154 165 176 169 147 144 149 148 144 145 153 154 142 138 135 128 122 121 120 115 107 92 90
167 180 185 183 179 175 174 172 173 175 175 173 171 177 177 171 173 179 189 197 194 189 190 190 188 185 182 180 180 181 183 185 185 183 182 184 185 181 178 178 176 175 172 170 176 171 160 156 155 162 171 160 147 144 139 132 124 120 120 120 122 133 150 163 171 176 157 145 147 154 148 141 149 149 140 137 140 137 129 125 120 117 111 88 80
164 174 179 179 176 175 178 176 172 173 176 175 173 174 174 172 173 180 188 192 196 198 194 193 192 187 183 181 179 180 182 183 184 185 185 185 181 177 179 180 178 172 172 176 177 172 165 159 158 157 157 151 143 144 143 135 126 123 126 125 127 133 146 157 165 189 159 135 137 150 152 156 153 147 145 143 147 139 123 113 113 117 115 91 80
165 167 169 173 175 177 179 181 180 174 169 169 172 172 171 172 174 178 183 189 197 199 196 193 191 188 184 180 178 178 181 181 185 190 188 184 180 178 178 178 177 175 179 183 179 176 170 162 159 155 150 148 148 149 146 139 131 128 130 127 127 132 141 148 153 177 140 125 133 141 144 157 156 151 152 153 157 135 115 104 111 119 116 98 77
169 169 170 171 175 179 178 181 183 178 172 172 177 178 174 174 178 180 182 188 194 194 193 191 187 186 184 180 180 180 181 183 188 193 192 189 184 179 176 176 177 180 183 185 181 173 171 166 158 158 161 157 152 149 147 144 140 139 136 130 127 131 140 145 140 141 124 122 131 134 142 153 150 150 150 148 152 141 130 116 106 110 106 101 77
172 174 176 176 178 182 183 181 182 184 183 180 181 179 175 175 180 184 188 189 192 190 186 184 182 181 181 180 182 183 183 187 192 194 195 190 182 176 175 177 178 180 180 179 176 170 171 169 162 167 169 158 152 152 157 162 160 154 148 140 136 132 134 137 131 128 128 122 122 126 140 150 143 143 144 143 144 138 132 109 82 67 74 86 89
175 178 178 178 179 182 184 182 180 184 186 180 178 178 178 179 181 185 188 188 190 188 179 175 176 176 181 182 181 185 187 191 192 192 193 186 179 177 174 176 178 177 176 175 174 173 174 175 173 172 165 155 152 159 177 198 180 160 160 160 156 147 137 133 125 122 126 121 120 127 139 145 137 135 140 143 140 130 121 103 82 62 64 69 73
183 183 180 180 181 182 181 176 179 189 191 184 179 179 180 179 181 181 180 182 185 180 170 168 175 176 180 182 182 185 187 188 189 188 189 181 175 175 173 175 177 176 176 175 176 177 178 180 177 173 168 162 157 165 189 226 202 171 179 183 177 185 163 137 130 126 129 129 127 132 141 145 136 134 140 134 128 126 115 100 87 77 62 58 55
190 187 183 182 183 183 176 173 187 194 192 186 179 176 176 173 174 176 174 176 176 171 168 169 176 179 178 181 183 184 182 181 185 185 183 178 174 174 175 176 176 174 176 177 179 180 181 181 177 174 177 174 166 170 183 210 216 235 330 91 184 215 147 137 143 136 140 140 136 144 143 141 137 136 136 123 125 127 103 104 112 103 76 68 71
191 191 188 184 186 184 179 186 194 193 190 187 182 177 177 174 173 173 173 175 175 175 176 172 175 179 178 179 179 177 177 178 181 181 177 176 176 175 177 177 172 168 172 176 179 182 184 184 182 181 183 185 180 172 174 188 195 195 17 44 272 293 121 149 161 142 142 138 129 137 118 112 117 121 120 115 134 142 113 120 128 104 95 93 93
191 193 191 185 187 184 183 191 195 191 189 187 183 180 178 178 179 178 176 176 175 174 174 170 174 177 174 172 171 171 175 175 175 176 175 175 177 178 180 177 171 167 168 176 179 182 185 184 184 187 186 186 188 180 173 177 179 178 185 95 349 323 139 170 186 142 148 132 105 107 100 102 105 102 103 102 117 133 119 114 103 94 97 95 99
185 190 192 186 187 187 184 190 194 194 190 184 184 185 180 181 184 182 180 177 171 166 165 167 171 171 166 167 167 168 171 171 170 173 174 174 174 176 177 176 176 174 172 177 182 182 182 180 183 190 190 188 192 189 173 177 183 175 183 194 134 120 148 203 236 166 150 139 114 106 97 101 99 91 99 101 105 112 106 107 105 100 102 103 104
181 185 191 188 191 191 184 188 196 196 190 182 183 187 186 187 187 183 184 178 166 159 160 164 166 163 162 164 164 162 165 167 166 169 171 169 169 169 172 173 175 179 180 181 185 185 184 185 188 191 191 191 196 193 176 183 193 175 174 192 178 173 183 201 234 196 145 150 147 127 123 122 107 94 100 108 110 110 107 111 111 106 108 108 103
184 186 189 190 195 188 174 183 196 193 192 187 183 187 188 190 190 188 185 171 157 157 158 161 161 160 160 160 159 161 163 163 160 162 164 163 165 166 170 172 171 178 181 177 180 183 185 187 190 190 190 194 199 200 191 187 190 182 178 186 188 193 197 178 198 202 154 150 150 147 156 152 126 107 102 112 118 118 119 117 114 111 110 106 99
184 189 193 192 191 175 165 186 200 197 200 197 186 186 185 187 192 192 182 162 153 157 159 159 160 161 162 161 161 161 161 161 157 156 158 157 158 160 165 170 172 180 184 183 183 181 180 180 180 182 188 199 203 200 202 192 184 191 190 191 199 201 206 191 174 191 180 147 141 150 148 137 128 123 118 120 126 127 126 121 117 114 110 106 101